[Iaude] MPEC C154: 2024 CC4 [a=1.53,e=0.35,i=11.2,H=27.5]

mpec at cfa.harvard.edu mpec at cfa.harvard.edu
Tue Feb 13 19:08:53 EST 2024


M.P.E.C. 2024-C154                            Issued 2024 February 14, 00:07 UT

     The Minor Planet Electronic Circulars contain information on unusual
         minor planets, routine data on comets and natural satellites,
         and occasional editorial announcements.  They are published
    on behalf of Division F of the International Astronomical Union by the
          Minor Planet Center, Smithsonian Astrophysical Observatory,
                          Cambridge, MA 02138, U.S.A.
			  
             Prepared using the Tamkin Foundation Computer Network

                              MPC at CFA.HARVARD.EDU
            URL https://www.minorplanetcenter.net/    ISSN 1523-6714

                                    2024 CC4                                    


Observations:
     K24C04C* C2024 02 12.32052310 15 35.521+02 56 52.44         18.6 GVEC154U68
     K24C04C  C2024 02 12.32386510 15 47.895+02 59 46.14         18.6 GVEC154U68
     K24C04C  C2024 02 12.34188010 16 54.265+03 15 24.31         18.5 GVEC154U68
     K24C04C  C2024 02 12.34522210 17 06.572+03 18 18.66         18.5 GVEC154U68
     K24C04C KB2024 02 13.89390 11 51 29.10 +22 06 18.5                ZEC154106
     K24C04C KB2024 02 13.89756 11 51 40.45 +22 08 19.7          18.5 RZEC154106
     K24C04C KB2024 02 13.90110 11 51 51.36 +22 10 17.9          19.4 RZEC154106
     K24C04C KB2024 02 13.90500 11 52 03.48 +22 12 28.5                ZEC154106
     K24C04C KB2024 02 13.95598811 54 44.48 +22 40 00.3          19.6 GXEC154I93
     K24C04C KB2024 02 13.96021111 54 57.28 +22 42 17.2          19.4 GXEC154I93
     K24C04C KB2024 02 13.96437011 55 09.81 +22 44 31.3          19.7 GXEC154I93
     K24C04C KC2024 02 13.98239011 56 04.57 +22 54 16.0          18.3 GXEC154958
     K24C04C KC2024 02 13.98647911 56 16.72 +22 56 26.2          19.4 GXEC154958
     K24C04C KC2024 02 13.99051811 56 28.77 +22 58 34.0          19.5 GXEC154958

Observer details:
106 Crni Vrh.  Observer H. Mikuz.  0.60-m f/3.3 reflector + CMO.
958 Observatoire de Dax.  Observers P. Dupouy, J. B. de Vanssay.  Measurer P.
    Dupouy.  0.43-m f/2.7 Reflector + CCD.
I93 St Pardon de Conques.  Observer F. Losse.  0.40-m f/3.7 reflector + CCD.
U68 JPL SynTrack Robotic Telescope, Auberry.  Observers N. Saini, C. Zhai, R.
    Trahan, M. Zhan, M. Shao.  0.28-m Reflector + CCD.

Orbital elements:
2024 CC4                                                 Earth MOID = 0.0101 AU
Epoch 2023 Sept. 13.0 TT = JDT 2460200.5                MPC                     
M 283.43115              (2000.0)            P               Q                  
n   0.52047753     Peri.  353.53100     -0.73134283     -0.67203052             
a   1.5306224      Node   143.36000     +0.63413731     -0.73278848             
e   0.3485268      Incl.   11.23208     +0.25101302     -0.10675217             
P   1.89           H   27.53          G   0.15           U   9                  
Residuals in seconds of arc
240212 U68  0.4-  0.4+    240213 106  0.4-  0.9-    240213 I93  0.1+  0.1+
240212 U68  0.3+  0.1-    240213 106  0.7-  0.6-    240213 958  0.2+  0.2+
240212 U68  0.0   0.4-    240213 106  0.8+  0.4+    240213 958  0.6-  0.0
240212 U68  0.1+  0.0     240213 I93  0.3+  0.2+    240213 958  0.4-  0.7-
240213 106  0.8-  0.1+    240213 I93  0.6+  0.4+

Ephemeris:
2024 CC4                 a,e,i = 1.53, 0.35, 11                  q = 0.9972
Date    TT    R. A. (2000) Decl.     Delta      r    Elong.  Phase     V
2024 01 15    04 45 35.8 -39 57 11   0.1222  1.0241   106.0    67.4    25.4
...
2024 01 30    05 11 21.6 -39 53 21   0.05964 1.0005   103.5    73.2    24.0
...
2024 02 07    06 25 26.0 -35 34 27   0.02596 0.9971   114.3    64.3    21.9
...
2024 02 13    10 59 00.1 +12 24 35   0.01231 0.9989   161.5    18.3    18.9
2024 02 14    11 56 35.1 +23 07 21   0.01430 0.9995   147.8    31.8    19.7
2024 02 15    12 42 35.0 +29 50 43   0.01726 1.0003   137.0    42.4    20.4
...
2024 02 21    14 40 35.2 +39 49 51   0.04114 1.0068   114.9    63.0    22.9
...
2024 02 29    15 17 08.2 +41 08 19   0.07554 1.0209   111.6    64.4    24.2
...
2024 03 15    15 27 24.9 +41 16 28   0.1387  1.0623   115.8    57.4    25.4

A. U. Tomatic                (C) Copyright 2024 MPC           M.P.E.C. 2024-C154





More information about the Iaude mailing list